Location: ???????
(54.6339°N, 39.4245°E)
Time: 11:35:57
(UTC+00:00)

Meteor 1-11 Rocket - Pass Details

Date: 19 May 2025
Orbit: 829 x 915 km, 81.2° (Epoch: 13 June)

Event Time Altitude Azimuth Distance (km) Brightness Sun altitude
Rises 19:16:03 0° 346° (NNW) 3,393 8.5 -10.9°
Reaches altitude 10° 19:18:30 10° 350° (N) 2,451 7.4 -11.1°
Maximum altitude 19:24:00 65° 72° (ENE) 918 3.9 -11.5°
Enters shadow 19:28:26 16° 152° (SSE) 2,049 5.0 -11.8°
